This page uses our WeatherBlox Daily Observations layout. Learn more.

41.84167, -96.70864

Hourly Observations for January 13, 2018

Temp ( °F °C ) Dew Point ( °F °C ) Humidity (%) Winds ( mph kmh ) Pressure ( in mb ) Visibility ( mi km ) Precip ( " mm )
12:54 am 00:54 Cloudy 9 -12.8 -2 -18.9 61 61 N 8 13 30.71 1040 10 16.09344 0 0
1:54 am 01:54 Cloudy 9 -12.8 -1 -18.3 64 64 N 12 19 30.71 1040 10 16.09344 0 0
2:54 am 02:54 Cloudy 9 -12.8 -1 -18.3 64 64 N 14 22 30.71 1040 10 16.09344 0.001 0.001
3:54 am 03:54 Cloudy 9 -12.8 -2 -18.9 61 61 N 12 19 30.71 1040 10 16.09344 0 0
4:54 am 04:54 Cloudy 9 -12.8 -2 -18.9 61 61 N 9 15 30.71 1040 10 16.09344 0 0
5:54 am 05:54 Cloudy 9 -12.8 -2 -18.9 61 61 N 9 15 30.74 1041 10 16.09344 0 0
6:54 am 06:54 Cloudy 8 -13.3 -3 -19.4 60 60 NNE 8 13 30.74 1041 10 16.09344 0 0
7:54 am 07:54 Cloudy 7 -13.9 -3 -19.4 63 63 NNE 7 11 30.74 1041 10 16.09344 0 0
8:54 am 08:54 Sunny 7 -13.9 -3 -19.4 63 63 NNE 3 6 30.74 1041 10 16.09344 0 0
9:54 am 09:54 Sunny 9 -12.8 -4 -20 55 55 ESE 5 7 30.74 1041 10 16.09344 0 0
10:54 am 10:54 Cloudy 10 -12.2 -4 -20 53 53 ENE 5 7 30.74 1041 10 16.09344 0 0
11:54 am 11:54 Cloudy 11 -11.7 -4 -20 51 51 Calm 30.71 1040 10 16.09344 0 0
12:54 pm 12:54 Cloudy 12 -11.1 -4 -20 48 48 SSE 5 7 30.68 1039 10 16.09344 0 0
1:54 pm 13:54 Cloudy 13 -10.6 -2 -18.9 51 51 N 7 11 30.65 1038 10 16.09344 0 0
2:54 pm 14:54 Cloudy 13 -10.6 0 -17.8 56 56 SE 6 9 30.62 1037 10 16.09344 0 0
3:54 pm 15:54 Cloudy 14 -10 0 -17.8 53 53 SE 8 13 30.62 1037 10 16.09344 0 0
4:54 pm 16:54 Cloudy 14 -10 2 -16.7 58 58 SE 8 13 30.62 1037 10 16.09344 0 0
5:54 pm 17:54 Cloudy 13 -10.6 2 -16.7 61 61 SE 12 19 30.62 1037 10 16.09344 0 0
6:54 pm 18:54 Cloudy 12 -11.1 2 -16.7 64 64 SE 14 22 30.59 1036 10 16.09344 0 0
7:54 pm 19:54 Cloudy 12 -11.1 2 -16.7 64 64 SE 14 22 30.59 1036 10 16.09344 0 0
8:54 pm 20:54 Cloudy 12 -11.1 2 -16.7 64 64 SE 12 19 30.59 1036 10 16.09344 0 0
9:54 pm 21:54 Cloudy 12 -11.1 3 -16.1 67 67 SE 10 17 30.59 1036 10 16.09344 0 0
10:54 pm 22:54 Cloudy 13 -10.6 4 -15.6 67 67 SE 12 19 30.56 1035 10 16.09344 0 0
11:54 pm 23:54 Cloudy 13 -10.6 4 -15.6 67 67 SSE 12 19 30.56 1035 10 16.09344 0 0